This is the latest recevied weather packets stored in our database for station/object W7TRD. If no packets are shown the sender has not sent any weather packets the latest 10 day(s).
| Time | Temp. | Humidity | Pressure | Rain* | Wind** | Luminosity | Snow |
|---|---|---|---|---|---|---|---|
| 1777511750 | 22.78° C | 47% | 1020.6 hPa | 0 mm | - | 167 W/m² | - |
| 1777511446 | 22.78° C | 46% | 1020.6 hPa | 0 mm | - | 181 W/m² | - |
| 1777511143 | 23.33° C | 46% | 1020.6 hPa | 0 mm | - | 194 W/m² | - |
| 1777510838 | 23.33° C | 45% | 1020.7 hPa | 0 mm | - | 209 W/m² | - |
| 1777510536 | 23.33° C | 46% | 1020.7 hPa | 0 mm | - | 224 W/m² | - |
| 1777510232 | 23.33° C | 45% | 1020.7 hPa | 0 mm | - | 238 W/m² | - |
| 1777509928 | 22.78° C | 45% | 1020.8 hPa | 0 mm | - | 252 W/m² | - |
| 1777509624 | 23.33° C | 45% | 1020.9 hPa | 0 mm | - | 265 W/m² | - |
| 1777509321 | 23.33° C | 44% | 1020.8 hPa | 0 mm | - | 279 W/m² | - |
| 1777509018 | 23.33° C | 45% | 1020.7 hPa | 0 mm | - | 293 W/m² | - |
| 1777508715 | 22.78° C | 46% | 1020.7 hPa | 0 mm | - | 309 W/m² | - |
| 1777508412 | 22.78° C | 45% | 1020.7 hPa | 0 mm | - | 323 W/m² | - |
| 1777508109 | 22.78° C | 45% | 1020.7 hPa | 0 mm | - | 339 W/m² | - |
| 1777507806 | 23.33° C | 43% | 1020.9 hPa | 0 mm | - | 353 W/m² | - |
| 1777507503 | 23.33° C | 44% | 1020.8 hPa | 0 mm | - | 366 W/m² | - |
| 1777507199 | 22.78° C | 45% | 1020.9 hPa | 0 mm | - | 381 W/m² | - |
| 1777506897 | 22.78° C | 45% | 1021 hPa | 0 mm | - | 394 W/m² | - |
| 1777506594 | 22.78° C | 45% | 1021.1 hPa | 0 mm | - | 409 W/m² | - |
| 1777506290 | 23.33° C | 45% | 1021.1 hPa | 0 mm | - | 422 W/m² | - |
| 1777505986 | 22.78° C | 45% | 1021.1 hPa | 0 mm | - | 436 W/m² | - |
| 1777505682 | 22.78° C | 45% | 1021.2 hPa | 0 mm | - | 451 W/m² | - |
| 1777505379 | 22.78° C | 44% | 1021.3 hPa | 0 mm | - | 461 W/m² | - |
| 1777505076 | 22.78° C | 45% | 1021.1 hPa | 0 mm | - | 474 W/m² | - |
| 1777504773 | 23.33° C | 44% | 1021.3 hPa | 0 mm | - | 487 W/m² | - |
| 1777504470 | 22.22° C | 47% | 1021.5 hPa | 0 mm | - | 498 W/m² | - |
* Rain latest hour (hover to see other rain measurements)
** Current wind speed in m/s (hover to see current wind gust speed)